Flag for Canada Weather past 2 weeks in Prince Albert, Saskatchewan, Canada

Now
45 °F

High level clouds.


Feels Like: 43 °F
Forecast: 43 / 57 °F
Wind: 3 mph from Northeast

Location: Prince Albert

Current Time: May 28, 2015 at 12:53:21 AM

Latest Report: May 28, 2015 at 12:00 AM


Visibility: 15 mi

Pressure: 29.93 "Hg

Humidity: 76%

Dew point: 37 °F

Location of Prince AlbertLocation

Historic Weather in Prince Albert — Graph

°F

Prince Albert temperature yesterday

Maximum temperature yesterday: 66 °F (at 4:00 PM)
Minimum temperature yesterday: 34 °F (at 3:00 AM)
Average temperature yesterday: 52 °F

Past Weeks' High & Low Weather Summary

 TemperatureHumidityPressure
High82 °F (May 23, 3:00 PM)100% (May 14, 4:00 AM)30.58 "Hg (May 14, 4:00 AM)
Low23 °F (May 18, 4:00 AM)14% (May 20, 11:00 AM)29.77 "Hg (May 25, 4:00 PM)
Average55 °F50%30.13 "Hg
* Reported May 12 11:00 PM — May 27 11:00 PM, Prince Albert, Weather by CustomWeather, © 2015

Note: Actual official high and low records may vary slightly from our data, if they occured in-between our weather recording intervals... More about our weather records

Advertising

Prince Albert weather history for previous 24 hours

 ConditionsComfort  
Time TempWeatherWind HumidityBarometerVisibility
11:00 PM
Wed, May 27
46 °FPassing clouds.2 mph71%29.95 "Hg15 mi
10:00 PM48 °FHigh level clouds.3 mph71%29.97 "Hg15 mi
9:00 PM55 °FHigh level clouds.No wind55%29.96 "Hg15 mi
8:00 PM63 °FHigh level clouds.2 mph37%29.96 "Hg15 mi
7:00 PM66 °FHigh level clouds.No wind30%29.97 "Hg15 mi
6:00 PM66 °FHigh level clouds.3 mph30%29.98 "Hg15 mi
5:00 PM66 °FHigh level clouds.5 mph28%30.01 "Hg15 mi
4:00 PM66 °FHigh level clouds.3 mph30%30.03 "Hg15 mi
3:00 PM63 °FHigh level clouds.5 mph37%30.05 "Hg15 mi
2:00 PM61 °FPartly sunny.5 mph34%30.07 "Hg15 mi
1:00 PM61 °FPartly sunny.10 mph34%30.08 "Hg15 mi
12:00 PM59 °FPartly sunny.5 mph42%30.10 "Hg15 mi
11:00 AM57 °FPartly sunny.13 mph48%30.10 "Hg15 mi
10:00 AM54 °FPartly sunny.9 mph54%30.10 "Hg15 mi
9:00 AM52 °FPartly sunny.7 mph62%30.11 "Hg15 mi
8:00 AM50 °FPartly sunny.7 mph67%30.11 "Hg15 mi
7:00 AM45 °FScattered clouds.6 mph87%30.11 "Hg15 mi
6:00 AM37 °FScattered clouds.3 mph93%30.11 "Hg15 mi
5:00 AM34 °FLight fog.3 mph93%30.10 "Hg15 mi
4:00 AM37 °FFog.2 mph93%30.09 "Hg15 mi
3:00 AM34 °FPassing clouds.6 mph93%30.07 "Hg15 mi
2:00 AM39 °FClear.3 mph93%30.07 "Hg15 mi
1:00 AM45 °FPassing clouds.5 mph81%30.06 "Hg15 mi
12:00 AM48 °FPassing clouds.7 mph71%30.05 "Hg12 mi
Weather by CustomWeather, © 2015

See weather overviewHow to use our weather pages